| time (UTC) | temp C | wind direction | speed KPH | gust KPH | rain 1hr cm | rain 24hr cm | rain mn cm | humidity % | barometer mb |
| 20260502210855 | 12 | 245 | 3.2 | 9.7 | 0.08 | 0.58 | 0.58 | 94 | 1011.6 |
| 20260502205854 | 12 | 237 | 1.6 | 8.0 | 0.05 | 0.56 | 0.56 | 94 | 1011.7 |
| 20260502204854 | 12 | 326 | 1.6 | 3.2 | 0.05 | 0.53 | 0.53 | 94 | 1011.6 |
| 20260502203854 | 12 | 235 | 0.0 | 1.6 | 0.00 | 0.51 | 0.51 | 94 | 1011.8 |
| 20260502200844 | 12 | 238 | 0.0 | 3.2 | 0.00 | 0.51 | 0.51 | 94 | 1011.9 |
| 20260502194844 | 12 | 24 | 0.0 | 1.6 | 0.00 | 0.51 | 0.51 | 93 | 1011.9 |
| 20260502193844 | 12 | 8 | 0.0 | 1.6 | 0.00 | 0.51 | 0.51 | 93 | 1012.1 |
| 20260502192844 | 12 | 89 | 0.0 | 3.2 | 0.00 | 0.51 | 0.51 | 92 | 1012.1 |
| 20260502191845 | 12 | 1 | 0.0 | 4.8 | 0.03 | 0.51 | 0.51 | 92 | 1011.9 |
| 20260502183842 | 12 | 18 | 0.0 | 3.2 | 0.08 | 0.51 | 0.51 | 91 | 1012.4 |
| 20260502181840 | 12 | 315 | 0.0 | 3.2 | 0.20 | 0.48 | 0.48 | 90 | 1012.7 |
| 20260502180840 | 12 | 314 | 1.6 | 6.4 | 0.25 | 0.46 | 0.46 | 90 | 1012.7 |
| 20260502162837 | 17 | 247 | 1.6 | 4.8 | 0.03 | 0.03 | 0.03 | 71 | 1013.4 |
| 20260502161838 | 17 | 278 | 0.0 | 4.8 | 0.00 | 0.00 | 0.00 | 68 | 1013.4 |
| 20260502151832 | 19 | 50 | 1.6 | 6.4 | 0.00 | 0.00 | 0.00 | 61 | 1013.8 |
| 20260502150832 | 19 | 20 | 1.6 | 6.4 | 0.00 | 0.00 | 0.00 | 60 | 1014.1 |
| 20260502122831 | 18 | 257 | 1.6 | 8.0 | 0.00 | 0.00 | 0.00 | 61 | 1016.3 |
| 20260502121831 | 18 | 161 | 4.8 | 9.7 | 0.00 | 0.00 | 0.00 | 62 | 1016.6 |
| 20260502120832 | 17 | 248 | 3.2 | 11.3 | 0.00 | 0.00 | 0.00 | 62 | 1016.6 |
| 20260502115831 | 17 | 222 | 3.2 | 8.0 | 0.00 | 0.00 | 0.00 | 62 | 1016.7 |
| 20260502114832 | 18 | 249 | 3.2 | 9.7 | 0.00 | 0.00 | 0.00 | 60 | 1016.9 |
| 20260502113832 | 18 | 257 | 3.2 | 11.3 | 0.00 | 0.00 | 0.00 | 62 | 1017.1 |
| 20260502112831 | 17 | 265 | 3.2 | 9.7 | 0.00 | 0.00 | 0.00 | 63 | 1017.1 |
| 20260502111831 | 17 | 167 | 3.2 | 12.9 | 0.00 | 0.00 | 0.00 | 64 | 1017.3 |
| 20260502110832 | 16 | 210 | 4.8 | 11.3 | 0.00 | 0.00 | 0.00 | 65 | 1017.4 |
| 20260502105831 | 17 | 308 | 1.6 | 9.7 | 0.00 | 0.00 | 0.00 | 66 | 1017.4 |
| 20260502104831 | 16 | 241 | 4.8 | 12.9 | 0.00 | 0.00 | 0.00 | 67 | 1017.5 |
| 20260502103831 | 16 | 240 | 3.2 | 9.7 | 0.00 | 0.00 | 0.00 | 67 | 1017.6 |
| 20260502102830 | 16 | 226 | 4.8 | 12.9 | 0.00 | 0.00 | 0.00 | 67 | 1018.0 |
| 20260502101832 | 16 | 237 | 4.8 | 11.3 | 0.00 | 0.00 | 0.00 | 67 | 1017.9 |
| 20260502100831 | 16 | 215 | 3.2 | 12.9 | 0.00 | 0.00 | 0.00 | 69 | 1018.0 |
| 20260502090831 | 15 | 111 | 0.0 | 4.8 | 0.00 | 0.00 | 0.00 | 73 | 1018.5 |
| 20260502065813 | 9 | 119 | 0.0 | 3.2 | 0.00 | 0.00 | 0.00 | 92 | 1018.9 |
| 20260502064813 | 9 | 157 | 1.6 | 4.8 | 0.00 | 0.00 | 0.00 | 92 | 1019.1 |
| 20260502063812 | 8 | 131 | 3.2 | 4.8 | 0.00 | 0.00 | 0.00 | 92 | 1019.1 |
| 20260502062813 | 8 | 146 | 0.0 | 4.8 | 0.00 | 0.00 | 0.00 | 92 | 1019.0 |
| 20260502060813 | 8 | 144 | 1.6 | 3.2 | 0.00 | 0.00 | 0.00 | 92 | 1018.9 |
| 20260502055813 | 8 | 103 | 1.6 | 4.8 | 0.00 | 0.00 | 0.00 | 92 | 1018.9 |
| 20260502054813 | 8 | 147 | 0.0 | 4.8 | 0.00 | 0.00 | 0.00 | 92 | 1019.0 |
| 20260502051813 | 8 | 155 | 1.6 | 4.8 | 0.00 | 0.00 | 0.00 | 91 | 1018.9 |
| 20260502045813 | 8 | 153 | 0.0 | 3.2 | 0.00 | 0.00 | 0.00 | 91 | 1019.0 |
| 20260502044810 | 8 | 216 | 0.0 | 1.6 | 0.00 | 0.00 | 0.00 | 91 | 1018.9 |
| 20260502043811 | 8 | 231 | 0.0 | 3.2 | 0.00 | 0.00 | 0.00 | 91 | 1019.0 |
| 20260502042809 | 8 | 141 | 0.0 | 3.2 | 0.00 | 0.00 | 0.00 | 90 | 1019.1 |
| 20260502041809 | 8 | 172 | 0.0 | 3.2 | 0.00 | 0.00 | 0.00 | 90 | 1019.1 |
| 20260502040809 | 8 | 169 | 0.0 | 1.6 | 0.00 | 0.00 | 0.00 | 90 | 1019.2 |
| 20260502035808 | 8 | 204 | 1.6 | 3.2 | 0.00 | 0.00 | 0.00 | 90 | 1019.2 |
| 20260502034808 | 8 | 172 | 0.0 | 3.2 | 0.00 | 0.00 | 0.00 | 90 | 1019.3 |
| 20260502033814 | 8 | 180 | 0.0 | 3.2 | 0.00 | 0.00 | 0.00 | 90 | 1019.4 |
| 20260502032811 | 9 | 170 | 0.0 | 3.2 | 0.00 | 0.00 | 0.00 | 89 | 1019.3 |
| 20260502031811 | 9 | 158 | 0.0 | 3.2 | 0.00 | 0.00 | 0.00 | 89 | 1019.3 |
| 20260502030807 | 9 | 119 | 0.0 | 3.2 | 0.00 | 0.00 | 0.00 | 89 | 1019.2 |
| 20260502025809 | 9 | 112 | 0.0 | 3.2 | 0.00 | 0.00 | 0.00 | 89 | 1019.3 |
| 20260502024807 | 9 | 162 | 0.0 | 0.0 | 0.00 | 0.00 | 0.00 | 89 | 1019.3 |
| 20260502023807 | 9 | 169 | 0.0 | 3.2 | 0.00 | 0.00 | 0.00 | 88 | 1019.4 |
| 20260502022807 | 10 | 173 | 0.0 | 3.2 | 0.00 | 0.00 | 0.00 | 88 | 1019.5 |
| 20260502020807 | 10 | 163 | 0.0 | 3.2 | 0.00 | 0.00 | 0.00 | 88 | 1019.5 |
| 20260502015808 | 10 | 151 | 1.6 | 4.8 | 0.00 | 0.00 | 0.00 | 88 | 1019.6 |
| 20260502014809 | 10 | 163 | 0.0 | 3.2 | 0.00 | 0.00 | 0.00 | 87 | 1019.5 |
| 20260502013807 | 10 | 195 | 1.6 | 4.8 | 0.00 | 0.00 | 0.00 | 87 | 1019.6 |
| 20260502012807 | 10 | 146 | 1.6 | 6.4 | 0.00 | 0.00 | 0.00 | 87 | 1019.8 |
| 20260502011808 | 10 | 131 | 1.6 | 4.8 | 0.00 | 0.00 | 0.00 | 87 | 1019.8 |
| 20260502010807 | 10 | 154 | 3.2 | 8.0 | 0.00 | 0.00 | 0.00 | 86 | 1019.9 |
| 20260502005808 | 10 | 159 | 3.2 | 6.4 | 0.00 | 0.00 | 0.00 | 86 | 1020.0 |
| 20260502003803 | 11 | 163 | 1.6 | 6.4 | 0.00 | 0.00 | 0.00 | 85 | 1020.2 |
| 20260502002803 | 11 | 164 | 1.6 | 4.8 | 0.00 | 0.00 | 0.00 | 84 | 1020.2 |
| 20260502001804 | 11 | 137 | 1.6 | 6.4 | 0.00 | 0.00 | 0.00 | 84 | 1020.2 |
| 20260502000803 | 11 | 201 | 1.6 | 6.4 | 0.00 | 0.00 | 0.00 | 84 | 1020.4 |
| 20260501235803 | 11 | 146 | 1.6 | 4.8 | 0.00 | 0.00 | 0.00 | 84 | 1020.3 |
| 20260501234804 | 11 | 220 | 3.2 | 6.4 | 0.00 | 0.00 | 0.00 | 83 | 1020.2 |
| 20260501232803 | 11 | 191 | 3.2 | 9.7 | 0.00 | 0.00 | 0.00 | 82 | 1020.3 |
| 20260501231805 | 12 | 202 | 3.2 | 8.0 | 0.00 | 0.00 | 0.00 | 82 | 1020.3 |
| 20260501230803 | 12 | 200 | 3.2 | 8.0 | 0.00 | 0.00 | 0.00 | 81 | 1020.3 |
| 20260501225804 | 12 | 219 | 1.6 | 4.8 | 0.00 | 0.00 | 0.00 | 81 | 1020.3 |
| 20260501223803 | 12 | 179 | 4.8 | 11.3 | 0.00 | 0.00 | 0.00 | 80 | 1020.3 |
| 20260501222803 | 13 | 194 | 3.2 | 11.3 | 0.00 | 0.00 | 0.00 | 80 | 1020.4 |
| 20260501221804 | 13 | 206 | 4.8 | 9.7 | 0.00 | 0.00 | 0.00 | 81 | 1020.4 |
| 20260501220803 | 13 | 201 | 3.2 | 9.7 | 0.00 | 0.00 | 0.00 | 82 | 1020.4 |
| 20260501215803 | 13 | 195 | 3.2 | 6.4 | 0.00 | 0.00 | 0.00 | 82 | 1020.3 |
| 20260501212804 | 14 | 219 | 1.6 | 6.4 | 0.00 | 0.00 | 0.00 | 83 | 1020.3 |
| 20260501211804 | 14 | 184 | 1.6 | 4.8 | 0.00 | 0.00 | 0.00 | 84 | 1020.3 |